When you browse on this site, cookies collect data to enhance your experience and personalize the content and advertising you see.
Visit our Privacy Policy to learn more. By continuing to use the site, you agree to this use of cookies and data.
  • In Latvia
  • List of Countries
  • For 7 days
  • Water Temperature
  • Satellite Maps
  • Weather Map
  • Weather Widgets
  • user-avatar
    Login

    Hourly Weather Perth

    Today, 19 January, Saturday

    Time Temperature Precipitation Wind Pressure Humidity
    00:00 +25°C° 0 mm 3 mps 760 mmHg 33%
    01:00 +25°C° 0 mm 4 mps 760 mmHg 31%
    02:00 +25°C° 0 mm 5 mps 760 mmHg 31%
    03:00 +25°C° 0 mm 5 mps 760 mmHg 35%
    04:00 +23°C° 0 mm 5 mps 760 mmHg 38%
    05:00 +23°C° 0 mm 6 mps 760 mmHg 42%
    06:00 +24°C° 0 mm 6 mps 760 mmHg 40%
    07:00 +27°C° 0 mm 6 mps 761 mmHg 38%
    08:00 +27°C° 0 mm 5 mps 761 mmHg 39%
    09:00 +30°C° 0 mm 4 mps 760 mmHg 34%
    10:00 +34°C° 0 mm 3 mps 760 mmHg 30%
    11:00 +37°C° 0 mm 3 mps 760 mmHg 26%
    12:00 +39°C° 0 mm 3 mps 759 mmHg 24%
    13:00 +40°C° 0 mm 3 mps 759 mmHg 22%
    14:00 +41°C° 0 mm 2 mps 758 mmHg 20%
    15:00 +40°C° 0 mm 3 mps 758 mmHg 22%
    16:00 +40°C° 0 mm 4 mps 757 mmHg 23%
    17:00 +39°C° 0 mm 5 mps 757 mmHg 25%
    18:00 +36°C° 0 mm 5 mps 757 mmHg 28%
    19:00 +34°C° 0 mm 5 mps 757 mmHg 31%
    20:00 +32°C° 0 mm 5 mps 758 mmHg 35%
    21:00 +32°C° 0 mm 4 mps 758 mmHg 33%
    22:00 +30°C° 0 mm 4 mps 758 mmHg 32%
    23:00 +30°C° 0 mm 4 mps 758 mmHg 30%

    Tomorrow, 20 January, Sunday

    Time Temperature Precipitation Wind Pressure Humidity
    00:00 +29°C° 0 mm 3 mps 758 mmHg 32%
    01:00 +29°C° 0 mm 3 mps 758 mmHg 34%
    02:00 +28°C° 0 mm 3 mps 757 mmHg 36%
    03:00 +28°C° 0 mm 3 mps 757 mmHg 36%
    04:00 +28°C° 0 mm 3 mps 757 mmHg 36%
    05:00 +27°C° 0 mm 3 mps 757 mmHg 36%
    06:00 +30°C° 0 mm 3 mps 757 mmHg 32%
    07:00 +33°C° 0 mm 3 mps 758 mmHg 29%
    08:00 +36°C° 0 mm 4 mps 758 mmHg 26%
    09:00 +38°C° 0 mm 3 mps 758 mmHg 23%
    10:00 +40°C° 0 mm 3 mps 757 mmHg 21%
    11:00 +43°C° 0 mm 3 mps 757 mmHg 18%
    12:00 +43°C° 0 mm 3 mps 757 mmHg 19%
    13:00 +43°C° 0 mm 4 mps 756 mmHg 19%
    14:00 +43°C° 0 mm 4 mps 756 mmHg 20%
    15:00 +42°C° 0 mm 5 mps 755 mmHg 21%
    16:00 +41°C° 0 mm 5 mps 755 mmHg 23%
    17:00 +40°C° 0 mm 5 mps 755 mmHg 25%
    18:00 +37°C° 0 mm 4 mps 755 mmHg 29%
    19:00 +34°C° 0 mm 4 mps 755 mmHg 32%
    20:00 +31°C° 0 mm 3 mps 755 mmHg 36%
    21:00 +30°C° 0 mm 3 mps 756 mmHg 38%
    22:00 +30°C° 0 mm 2 mps 756 mmHg 40%
    23:00 +29°C° 0 mm 2 mps 756 mmHg 41%

    Day after tomorrow, 21 January, Monday

    Time Temperature Precipitation Wind Pressure Humidity
    00:00 +28°C° 0 mm 2 mps 756 mmHg 42%
    01:00 +28°C° 0 mm 1 mps 755 mmHg 42%
    02:00 +28°C° 0 mm 1 mps 755 mmHg 42%
    03:00 +27°C° 0 mm 1 mps 755 mmHg 43%
    04:00 +27°C° 0 mm 1 mps 755 mmHg 43%
    05:00 +27°C° 0 mm 1 mps 755 mmHg 43%
    06:00 +29°C° 0 mm 1 mps 755 mmHg 41%
    07:00 +30°C° 0 mm 1 mps 755 mmHg 39%
    08:00 +32°C° 0 mm 2 mps 755 mmHg 37%
    09:00 +34°C° 0 mm 3 mps 755 mmHg 35%
    10:00 +36°C° 0 mm 3 mps 755 mmHg 33%
    11:00 +37°C° 0 mm 4 mps 755 mmHg 31%
    12:00 +37°C° 0 mm 5 mps 754 mmHg 31%
    13:00 +38°C° 0 mm 6 mps 754 mmHg 31%
    14:00 +38°C° 0 mm 6 mps 753 mmHg 32%
    15:00 +35°C° 0 mm 7 mps 753 mmHg 33%
    16:00 +34°C° 0 mm 7 mps 753 mmHg 34%
    17:00 +33°C° 0 mm 7 mps 753 mmHg 35%
    18:00 +30°C° 0 mm 7 mps 753 mmHg 41%
    19:00 +28°C° 0 mm 7 mps 754 mmHg 47%
    20:00 +26°C° 0 mm 7 mps 754 mmHg 52%
    21:00 +27°C° 0.1 mm 6 mps 755 mmHg 51%
    22:00 +27°C° 0.1 mm 5 mps 755 mmHg 49%
    23:00 +27°C° 0.1 mm 4 mps 756 mmHg 47%

    22 January, Tuesday

    Time Temperature Precipitation Wind Pressure Humidity
    00:00 +26°C° 0.1 mm 4 mps 755 mmHg 49%
    01:00 +26°C° 0.1 mm 4 mps 755 mmHg 50%
    02:00 +25°C° 0.1 mm 3 mps 755 mmHg 52%
    03:00 +25°C° 0.1 mm 3 mps 754 mmHg 56%
    04:00 +24°C° 0.1 mm 3 mps 754 mmHg 60%
    05:00 +22°C° 0.1 mm 4 mps 754 mmHg 64%
    06:00 +23°C° 0 mm 4 mps 754 mmHg 63%
    07:00 +23°C° 0 mm 4 mps 755 mmHg 61%
    08:00 +25°C° 0 mm 4 mps 755 mmHg 59%
    09:00 +27°C° 0 mm 4 mps 755 mmHg 53%
    10:00 +29°C° 0 mm 4 mps 755 mmHg 48%
    11:00 +32°C° 0 mm 4 mps 755 mmHg 42%
    12:00 +30°C° 0 mm 5 mps 754 mmHg 44%
    13:00 +30°C° 0 mm 6 mps 754 mmHg 45%
    14:00 +29°C° 0 mm 7 mps 753 mmHg 46%
    15:00 +28°C° 0 mm 7 mps 753 mmHg 49%
    16:00 +27°C° 0 mm 7 mps 753 mmHg 52%
    17:00 +26°C° 0 mm 7 mps 753 mmHg 55%
    18:00 +24°C° 0 mm 6 mps 753 mmHg 60%
    19:00 +23°C° 0 mm 6 mps 754 mmHg 65%
    20:00 +21°C° 0 mm 5 mps 754 mmHg 70%
    21:00 +20°C° 0 mm 5 mps 754 mmHg 74%
    22:00 +20°C° 0 mm 5 mps 755 mmHg 77%
    23:00 +19°C° 0 mm 5 mps 755 mmHg 81%

    23 January, Wednesday

    Time Temperature Precipitation Wind Pressure Humidity
    00:00 +19°C° 0.1 mm 6 mps 755 mmHg 79%
    01:00 +17°C° 0.1 mm 6 mps 754 mmHg 77%
    02:00 +17°C° 0.1 mm 6 mps 754 mmHg 75%
    03:00 +16°C° 0 mm 6 mps 754 mmHg 75%
    04:00 +16°C° 0 mm 5 mps 755 mmHg 75%
    05:00 +15°C° 0 mm 5 mps 755 mmHg 74%
    06:00 +16°C° 0 mm 5 mps 755 mmHg 69%
    07:00 +17°C° 0 mm 5 mps 756 mmHg 64%
    08:00 +17°C° 0 mm 5 mps 757 mmHg 59%
    09:00 +19°C° 0 mm 6 mps 757 mmHg 55%
    10:00 +20°C° 0 mm 7 mps 757 mmHg 50%
    11:00 +21°C° 0 mm 8 mps 757 mmHg 46%
    12:00 +21°C° 0.1 mm 8 mps 756 mmHg 46%
    13:00 +21°C° 0.1 mm 9 mps 756 mmHg 47%
    14:00 +21°C° 0.1 mm 9 mps 756 mmHg 47%
    15:00 +21°C° 0.1 mm 9 mps 757 mmHg 49%
    16:00 +19°C° 0.1 mm 9 mps 757 mmHg 51%
    17:00 +20°C° 0.1 mm 8 mps 757 mmHg 53%
    18:00 +18°C° 0 mm 8 mps 757 mmHg 56%
    19:00 +17°C° 0 mm 7 mps 758 mmHg 59%
    20:00 +17°C° 0 mm 6 mps 758 mmHg 62%
    21:00 +16°C° 0 mm 6 mps 758 mmHg 65%
    22:00 +16°C° 0 mm 5 mps 758 mmHg 67%
    23:00 +15°C° 0 mm 5 mps 758 mmHg 70%

    24 January, Thursday

    Time Temperature Precipitation Wind Pressure Humidity
    00:00 +15°C° 0 mm 5 mps 758 mmHg 71%
    01:00 +15°C° 0 mm 4 mps 758 mmHg 72%
    02:00 +14°C° 0 mm 4 mps 758 mmHg 73%
    03:00 +14°C° 0 mm 4 mps 758 mmHg 74%
    04:00 +14°C° 0 mm 4 mps 758 mmHg 74%
    05:00 +14°C° 0 mm 4 mps 759 mmHg 75%
    06:00 +15°C° 0 mm 4 mps 759 mmHg 69%
    07:00 +17°C° 0 mm 4 mps 760 mmHg 64%
    08:00 +17°C° 0 mm 4 mps 760 mmHg 58%
    09:00 +19°C° 0 mm 4 mps 760 mmHg 52%
    10:00 +21°C° 0 mm 4 mps 760 mmHg 46%
    11:00 +22°C° 0 mm 4 mps 760 mmHg 40%
    12:00 +23°C° 0 mm 5 mps 759 mmHg 40%
    13:00 +23°C° 0 mm 6 mps 759 mmHg 40%
    14:00 +24°C° 0 mm 6 mps 758 mmHg 40%
    15:00 +23°C° 0 mm 6 mps 758 mmHg 42%
    16:00 +23°C° 0 mm 6 mps 758 mmHg 44%
    17:00 +23°C° 0 mm 7 mps 758 mmHg 46%
    18:00 +22°C° 0 mm 6 mps 758 mmHg 49%
    19:00 +21°C° 0 mm 5 mps 759 mmHg 52%
    20:00 +20°C° 0 mm 5 mps 759 mmHg 55%
    21:00 +19°C° 0 mm 5 mps 759 mmHg 53%
    22:00 +19°C° 0 mm 4 mps 759 mmHg 51%
    23:00 +19°C° 0 mm 4 mps 759 mmHg 49%
    Show more